STARLINK-11185, 62588

Orbit data source: Space-Track

STARLINK-11185, 62588 is a payload satellite owned by SpaceX/Seattle (US) in LEO that was launched on Mon, 13 Jan 2025 UTC via an FALCON 9 launch vehicle from the Air Force Eastern Test Range (AFETR). Payload-class satellites include a variety of spacecraft equipped with specific instruments for various scientific and technological missions. These include communications satellites like Starlink; space stations such as the ISS; scientific satellites like the Hubble; Earth observation satellites from companies like Planet Labs, Umbra, and HawkEye 360; GPS; miniature CubeSats for education and research; and military/defense satellites.

Loading next visibility...
Identifier
62588, 2025-008B
Orbit
LEO
Country
Flag of USUS
Related business
Manufacturer
SpaceX/Seattle
Mission
Operational Commercial Communications
Bus & Motor
STARLINK V2MD, Unknown motor
Mass
960 kg wet, ~910 kg dry
Launch date (UTC)
2025-01-13 (1 year ago)
Launch vehicle
FALCON 9
Launch site
Air Force Eastern Test Range (AFETR)
Object type
Payload
Rocket body
Debris
Shape & HBR
Box + 2 Pan, 18.1 m
Radar Cross Section
36.964 m², Large (>1 m²)

Expand to show TLE details & history
Last TLE update: 18 hours ago

TLE from 18 hours ago
0 STARLINK-11185
1 62588U 25008B   26171.16497537  .00135038  00000-0  10353-2 0  9997
2 62588  43.0005 228.2376 0001488 264.4630  95.6068 15.70921088 82239
Epoch: 2026-06-20T03:57Z
TLE epoch observation values (Epoch: 2026-06-20T03:57:33.871Z)
Latitude
-0.00004°
Longitude
-99.53709°
Altitude
356.133 km
Speed
7.697 km/s
True Right ascension
15h 12m 57s
True Declination
0° 00' 00"
Sunlit
Object was in full shadow at epoch
Visualization orbit readout
Latitude
Unknown
Longitude
Unknown
Altitude
Unknown
Speed
Unknown
Apparent Right ascension
Unknown
Apparent Declination
Unknown
Sunlit
N/A
Visualization observer readout
Local Sidereal Time
08:42:28
Azimuth
Unknown
Elevation
Unknown
Doppler factor
Unknown
Orbital elements
Apogee altitude
359.247 km
Perigee altitude
357.243 km
Semi-major axis
6,736.382 km
Eccentricity
0.00015
Inclination
43.0005°
RAAN
228.2376°
Arg. of periapsis
264.463°
True anomaly
95.62377°
Mean anomaly
95.6068°
Eccentric anomaly
95.61528°
Mean motion
3.92557 °/min
Orbital period
91.71 mins
BSTAR
0.0010353
Loading maneuver chart data...
Computing Atmospheric mass density...
Loading historical data...
Loading historical data...
Loading historical data...
Loading historical data...
Loading historical data...
Loading historical data...
Loading historical data...

Documentation

Showing up to 5 results
|